Location: Biltmore Gardens
(41.6070°N, 83.4666°W)
Time: 15:05:49
(UTC+00:00)

Helios 1A - Pass Details

Date: 14 July 2020
Orbit: 587 x 600 km, 98.2° (Epoch: 07 August)

Event Time Altitude Azimuth Distance (km) Brightness Sun altitude
Exits shadow 05:28:41 54° 16° (NNE) 718 3.6 -26.7°
Drops below altitude 10° 05:32:03 10° 352° (N) 1,924 6.6 -26.8°
Sets 05:34:14 0° 350° (N) 2,831 7.7 -26.8°
